This is the latest recevied weather packets stored in our database for station/object SV9TNF-1. If no packets are shown the sender has not sent any weather packets the latest 10 day(s).
| Time | Temp. | Humidity | Pressure | Rain* | Wind** | Luminosity | Snow |
|---|---|---|---|---|---|---|---|
| 1777693839 | 11.67° C | 96% | 1003.1 hPa | 1.27 mm | 1.34 m/s, 126° | - | - |
| 1777693539 | 11.67° C | 95% | 1003.1 hPa | 3.81 mm | 1.79 m/s, 138° | - | - |
| 1777693238 | 11.67° C | 95% | 1003.1 hPa | 3.81 mm | 1.79 m/s, 135° | - | - |
| 1777692939 | 11.67° C | 96% | 1003.1 hPa | 2.54 mm | 0 m/s | - | - |
| 1777692638 | 11.67° C | 95% | 1003.1 hPa | 3.81 mm | 0 m/s | - | - |
| 1777692338 | 11.67° C | 95% | 1003.1 hPa | 2.54 mm | 1.34 m/s, 131° | - | - |
| 1777692038 | 11.67° C | 95% | 1003.1 hPa | 0 mm | 1.79 m/s, 136° | - | - |
| 1777691738 | 11.67° C | 95% | 1003.1 hPa | 0 mm | 2.68 m/s, 133° | - | - |
| 1777691438 | 11.67° C | 95% | 1003.1 hPa | 0 mm | 1.79 m/s, 133° | - | - |
| 1777691138 | 11.67° C | 95% | 1003.1 hPa | 1.27 mm | 0.89 m/s, 136° | - | - |
| 1777690838 | 11.67° C | 95% | 1003.1 hPa | 2.54 mm | 1.79 m/s, 134° | - | - |
| 1777690538 | 11.67° C | 95% | 1003.1 hPa | 5.08 mm | 1.34 m/s, 134° | - | - |
| 1777690238 | 11.67° C | 95% | 1003.1 hPa | 7.87 mm | 0.89 m/s, 138° | - | - |
| 1777689937 | 11.67° C | 95% | 1003.4 hPa | 7.87 mm | 3.58 m/s, 126° | - | - |
| 1777689637 | 11.67° C | 94% | 1003.4 hPa | 5.08 mm | 0.45 m/s, 149° | - | - |
| 1777689337 | 11.67° C | 94% | 1003.1 hPa | 1.27 mm | 0.89 m/s, 141° | - | - |
| 1777689037 | 11.67° C | 94% | 1003.1 hPa | 0 mm | 3.13 m/s, 159° | - | - |
| 1777688737 | 12.22° C | 94% | 1003.1 hPa | 0 mm | 0 m/s | - | - |
| 1777688437 | 12.22° C | 94% | 1003.1 hPa | 0 mm | 0 m/s | - | - |
| 1777688137 | 12.22° C | 94% | 1003.1 hPa | 0 mm | 1.34 m/s, 133° | - | - |
| 1777687837 | 11.67° C | 94% | 1003.1 hPa | 1.27 mm | 0 m/s | - | - |
| 1777687537 | 11.67° C | 94% | 1003.1 hPa | 1.27 mm | 0 m/s | - | - |
| 1777687237 | 11.67° C | 94% | 1003.1 hPa | 0 mm | 1.79 m/s, 128° | - | - |
| 1777686937 | 11.67° C | 93% | 1003.1 hPa | 1.27 mm | 3.58 m/s, 147° | - | - |
| 1777686637 | 12.22° C | 93% | 1003.1 hPa | 2.54 mm | 3.13 m/s, 140° | - | - |
* Rain latest hour (hover to see other rain measurements)
** Current wind speed in m/s (hover to see current wind gust speed)